Regional Weather Roundup
Issued by NWS Columbia, SC

Home | Current Version | Previous Version | Text Only | Print | Product List | Glossary On
Versions: 1 2 3 4 5 6 7 8 9 10 11 12 13 14 15 16 17 18 19 20 21 22 23 24 25 26 27 28 29 30 31 32 33 34 35 36 37 38 39 40 41 42 43 44 45 46 47 48 49 50
000
ASUS42 KCAE 010710
RWRCAE
REGIONAL WEATHER ROUNDUP
NATIONAL WEATHER SERVICE COLUMBIA SC
200 AM EST SUN MAR 01 2015

NOTE: "FAIR" INDICATES FEW OR NO CLOUDS BELOW 12,000 FEET WITH NO
SIGNIFICANT WEATHER AND/OR OBSTRUCTIONS TO VISIBILITY.

NOT ALL STATIONS ARE QUALITY CONTROLLED BY THE NATIONAL
WEATHER SERVICE. USE DATA WITH CAUTION...ESPECIALLY
DEWPOINT OBSERVATIONS.

SCZ001>056-GAZ040-063>065-077-010800-
...UPSTATE SOUTH CAROLINA...

CITY           SKY/WX    TMP DP  RH WIND       PRES   REMARKS
ANDERSON       LGT RAIN  36  29  75 NE9       30.59F WCI  29
LIBERTY        CLOUDY    37  26  63 MISG      30.60R
SPARTANBURG    LGT RAIN  36  28  75 NE6       30.60F WCI  31
CLEMSON        LGT RAIN  38  26  62 NE5       30.61F WCI  34
GREENVILLE     CLOUDY    36  24  62 NE8       30.59F WCI  30
GREENWOOD      LGT RAIN  36  29  75 N9        30.61S WCI  29
GREER          CLOUDY    35  26  69 NE7       30.58F WCI  29
ROCK HILL      CLOUDY    35  19  52 NE3       30.62F
CHESTER        CLOUDY    36  27  69 N7        30.62S WCI  30
LAURENS        DRIZZLE   34  32  93 NE8       30.60F WCI  27


...CENTRAL SOUTH CAROLINA...

CITY           SKY/WX    TMP DP  RH WIND       PRES   REMARKS
COLUMBIA APT   CLOUDY    39  32  76 N6        30.59F WCI  35
COLUMBIA OWENS CLOUDY    38  29  70 VRB5      30.60F WCI  34
DARLINGTON     CLOUDY    36  28  75 N6        30.62F WCI  31
FLORENCE       LGT RAIN  37  29  72 NE9       30.60F WCI  30
ORANGEBURG     CLOUDY    39  30  70 NE12      30.56F WCI  32
SUMTER SHAW    LGT RAIN  36  30  78 NE8       30.57F WCI  30
NEWBERRY       CLOUDY    34  32  93 NE9       30.63F WCI  26
AIKEN          DRIZZLE   37  36  93 N8        30.58F WCI  31
BARNWELL       CLOUDY    43  34  70 NE9       30.54F
CAMDEN         DRIZZLE   36  30  80 CALM      30.61F
LANCASTER      LGT RAIN  32  28  86 CALM      30.63R
WINNSBORO      PTSUNNY   34  30  86 N7        30.59F WCI  28


...EASTERN AND COASTAL SOUTH CAROLINA...

CITY           SKY/WX    TMP DP  RH WIND       PRES   REMARKS
MYRTLE BEACH   CLOUDY    41  27  56 N7        30.60S
N MYRTLE BCH   CLOUDY    39  26  59 N8        30.57F WCI  33
CONWAY         LGT RAIN  39  30  70 N7        30.58F WCI  34
MARION         CLOUDY    36  30  80 CALM      30.61F
HARTSVILLE     CLOUDY    34  32  93 CALM      30.61S
FLORENCE       LGT RAIN  37  29  72 NE9       30.60F WCI  30
DARLINGTON     CLOUDY    36  28  75 N6        30.62F WCI  31
CHARLESTON APT LGT RAIN  42  31  64 N10G18    30.54F
MOUNT PLEASANT LGT RAIN  43  34  70 N7        30.53F
WALTERBORO     DRIZZLE   43  36  75 NE8       30.53F
BEAUFORT       LGT RAIN  42  38  85 N12       30.51F


...EASTERN GEORGIA...

CITY           SKY/WX    TMP DP  RH WIND       PRES   REMARKS
AUGUSTA BUSH F CLOUDY    40  35  83 NE8       30.56F WCI  34
AUGUSTA DANIEL LGT RAIN  41  35  79 NE10      30.55F
THOMSON        CLOUDY    41  39  93 N6        30.61S
WASHINGTON     RAIN      41  41 100 N3        30.58S
CLAXTON        DRIZZLE   43  41  93 NE8       30.51F
SYLVANIA       LGT RAIN  40  40  99 NE6       30.52F
STATESBORO     DRIZZLE   41  41 100 NE3       30.52S
SAVANNAH       CLOUDY    43  38  82 NE9       30.51S


...SOUTHERN NORTH CAROLINA...

CITY           SKY/WX    TMP DP  RH WIND       PRES   REMARKS
CHARLOTTE      CLOUDY    35  13  40 NE8       30.62F WCI  29
MONROE         LGT RAIN  34  19  54 NE9       30.61S WCI  27
WADESBORO      LGT RAIN  35  20  55 NW5       30.63S WCI  31
ROCKINGHAM       N/A     35  22  59 NE3       30.61F
RUTHERFORDTON  LGT RAIN  34  25  70 CALM      30.62S
ASHEVILLE      MIX PCPN  32  22  66 S6        30.56F WCI  26

$$



USA.gov is the U.S. government's official web portal to all federal, state and local government web resources and services.